User: anonymous   Login
Location: Carella
(45.8167°N, 9.2667°E)
Time: 13:44:47
(UTC+00:00)
Language:

MOS 1 Rocket - Orbit

View from above orbital plane
View from above orbital plane
View from above satellite
View from above satellite

Ground track
Ground track

The orbit data is extracted from the following two-line orbital elements,

1 17528U 87018B   20191.80972979  .00000025  00000-0  14750-4 0  9999
2 17528  97.4144  38.4179 0152382  33.6640 327.4124 14.50991103762077
Epoch (UTC): 09 July 2020 19:26:00
Eccentricity: 0.0152382
inclination: 97.4144°
perigee height: 614 km
apogee height: 830 km
right ascension of ascending node: 38.4179°
argument of perigee: 33.6640°
revolutions per day: 14.50991103
mean anomaly at epoch: 327.4124°
orbit number at epoch: 76207

The dashed part of the orbit path shows where the satellite is in the earth's shadow,  

DLR